Location: ActonStarParty
(42.4766°N, 71.4538°W)
Time: 13:56:41
(UTC-04:00)

Cosmos 1300 - Visible Passes

Search period start: 31 May 2016 00:00
Search period end: 10 June 2016 00:00
Orbit: 516 x 519 km, 82.5° (Epoch: 31 May)

Date Brightness Start Highest point End Pass type
(mag) Time Alt. Az. Time Alt. Az. Time Alt. Az.
31 May 3.4 01:23:09 10° N 01:26:29 50° NE 01:26:29 50° NE visible
01 Jun 3.7 01:08:49 10° N 01:12:04 42° ENE 01:12:04 42° ENE visible
01 Jun 5.1 02:46:15 10° WNW 02:47:07 12° WNW 02:47:07 12° WNW visible
02 Jun 3.9 00:54:29 10° N 00:57:40 35° ENE 00:57:40 35° ENE visible
02 Jun 5.0 02:31:20 10° NW 02:32:43 14° WNW 02:32:43 14° WNW visible
03 Jun 4.2 00:40:12 10° NNE 00:43:17 30° ENE 00:43:17 30° ENE visible
03 Jun 4.8 02:16:35 10° NW 02:18:19 16° WNW 02:18:19 16° WNW visible
04 Jun 4.4 00:25:57 10° NNE 00:28:54 26° ENE 00:28:54 26° ENE visible
04 Jun 4.7 02:01:55 10° NW 02:03:57 19° WNW 02:03:57 19° WNW visible
05 Jun 4.6 00:11:42 10° NNE 00:14:32 22° ENE 00:14:32 22° ENE visible
05 Jun 4.5 01:47:18 10° NW 01:49:35 22° WNW 01:49:35 22° WNW visible
05 Jun 4.8 23:57:31 10° NNE 00:00:11 19° ENE 00:00:11 19° ENE visible
06 Jun 4.3 01:32:45 10° NNW 01:35:13 26° WNW 01:35:13 26° WNW visible
06 Jun 4.9 23:43:24 10° NNE 23:45:50 16° ENE 23:45:50 16° ENE visible
07 Jun 4.1 01:18:12 10° NNW 01:20:53 30° WNW 01:20:53 30° WNW visible
07 Jun 5.1 23:29:22 10° NE 23:31:22 14° ENE 23:31:30 14° ENE visible
08 Jun 3.8 01:03:42 10° NNW 01:06:33 36° WNW 01:06:33 36° WNW visible
08 Jun 5.2 23:15:32 10° NE 23:16:53 11° ENE 23:17:10 11° ENE visible
09 Jun 3.6 00:49:13 10° NNW 00:52:13 43° NW 00:52:13 43° NW visible
